Hourly Data Report for October 17, 2015

All times are specified in Local Standard Time (LST). Add 1 hour to adjust for Daylight Saving Time where and when it is observed.

GJOA HAVEN A
NUNAVUT

68°38'08.000" N
95°51'01.000" W
46.90 m
2302337
71597
YHK

Download Data

Hourly Data (October 2015)
Hourly Data Report for October 17, 2015
Temp Definition
°C
Dew Point Temp Definition
°C
Rel Hum Definition
%
Wind Dir Definition
10's deg

Wind Spd Definition
km/h
Visibility Definition
km
Stn Press Definition
kPa
Hmdx Definition


Wind Chill Definition


Weather Definition


TIME
00:00 Legend Double Dagger -7.4 -8.0 95 33 18 16.1 101.01   -14 LegendNANA
01:00 Legend Double Dagger -7.5 -8.0 96 31 11 16.1 101.04   -13 LegendNANA
02:00 Legend Double Dagger -7.4 -7.9 96 32 11 16.1 101.05   -12 LegendNANA
03:00 Legend Double Dagger -7.5 -8.0 96 31 13 16.1 101.06   -13 LegendNANA
04:00 Legend Double Dagger -7.5 -8.0 96 31 15 16.1 101.06   -14 LegendNANA
05:00 Legend Double Dagger -7.4 -7.9 96 31 15 16.1 101.05   -14 LegendNANA
06:00 Legend Double Dagger -7.6 -8.1 96 32 11 16.1 101.02   -13 LegendNANA
07:00 Legend Double Dagger -7.5 -8.0 96 26 8 16.1 101.01   -12 LegendNANA
08:00 Legend Double Dagger -7.6 -8.1 96 29 11 16.1 100.98   -13 LegendNANA
09:00 Legend Double Dagger -7.2 -7.7 96 27 21 16.1 100.96   -15 LegendNANA
10:00 Legend Double Dagger -7.0 -7.5 96 29 11 16.1 100.92   -12 LegendNANA
11:00 Legend Double Dagger -6.8 -7.3 96 28 15 16.1 100.89   -13 LegendNANA
12:00 Legend Double Dagger -6.8 -7.3 96 31 9 16.1 100.86   -11 LegendNANA
13:00 Legend Double Dagger -6.6 -7.1 96 30 17 16.1 100.87   -13 LegendNANA
14:00 Legend Double Dagger -7.4 -8.1 95 34 24 9.7 100.87   -15 Snow
15:00 Legend Double Dagger -8.0 -8.7 95 35 22 8.1 100.86   -16 Snow
16:00 Legend Double Dagger -9.0 -9.8 94 35 28 16.1 100.83   -18 Snow
17:00 Legend Double Dagger -9.9 -11.0 92 35 21 16.1 100.81   -18 Snow
18:00 Legend Double Dagger -10.7 -12.0 90 32 11 16.1 100.77   -16 LegendNANA
19:00 Legend Double Dagger -9.6 -11.2 88 34 18 16.1 100.73   -17 Snow
20:00 Legend Double Dagger -9.6 -12.3 81 1 24 16.1 100.70   -18 LegendNANA
21:00 Legend Double Dagger -12.4 -14.3 86 36 18 16.1 100.72   -20 LegendNANA
22:00 Legend Double Dagger -11.0 -13.1 85 34 13 16.1 100.70   -17 LegendNANA
23:00 Legend Double Dagger -12.3 -14.0 87 35 22 16.1 100.65   -21 LegendNANA

Notes on Data Quality.

Legend

  • E = Estimated
  • M = Missing
  • NA = Not Available
  • ‡ = Partner data that is not subject to review by the National Climate Archives
Date modified: